Time,TemperatureF,DewpointF,PressureIn,WindDirection,WindDirectionDegrees,WindSpeedMPH,WindSpeedGustMPH,Humidity,HourlyPrecipIn,Conditions,Clouds,dailyrainin,SoftwareType,DateUTC
2013-01-26 00:02:00,31.0,30.0,-100.00,WSW,247,2.0,3.0,96,-99.99,,,-99.99,,2013-01-26 08:02:00,
2013-01-26 00:11:00,31.0,30.0,-100.00,WSW,247,2.0,3.0,96,-99.99,,,-99.99,,2013-01-26 08:11:00,
2013-01-26 00:54:00,32.0,29.0,-100.00,SSE,157,5.0,9.0,88,-99.99,,,-99.99,,2013-01-26 08:54:00,
2013-01-26 01:02:00,32.0,29.0,-100.00,SSE,157,5.0,9.0,88,-99.99,,,-99.99,,2013-01-26 09:02:00,
2013-01-26 01:11:00,32.0,29.0,-100.00,SSE,157,5.0,9.0,88,-99.99,,,-99.99,,2013-01-26 09:11:00,
2013-01-26 02:01:00,31.0,30.0,-100.00,North,360,3.0,5.0,96,-99.99,,,-99.99,,2013-01-26 10:01:00,
2013-01-26 02:11:00,31.0,30.0,-100.00,North,360,3.0,5.0,96,-99.99,,,-99.99,,2013-01-26 10:11:00,
2013-01-26 02:52:00,31.0,30.0,-100.00,WNW,284,3.0,6.0,96,-99.99,,,-99.99,,2013-01-26 10:52:00,
2013-01-26 03:01:00,31.0,30.0,-100.00,WNW,284,3.0,6.0,96,-99.99,,,-99.99,,2013-01-26 11:01:00,
2013-01-26 03:12:00,31.0,30.0,-100.00,WNW,284,3.0,6.0,96,-99.99,,,-99.99,,2013-01-26 11:12:00,
2013-01-26 04:02:00,31.0,30.0,-100.00,North,1,1.0,1.0,96,-99.99,,,-99.99,,2013-01-26 12:02:00,
2013-01-26 04:12:00,31.0,30.0,-100.00,North,1,1.0,1.0,96,-99.99,,,-99.99,,2013-01-26 12:12:00,
2013-01-26 05:03:00,31.0,30.0,-100.00,SE,129,3.0,3.0,96,-99.99,,,-99.99,,2013-01-26 13:03:00,
2013-01-26 05:12:00,31.0,30.0,-100.00,SE,129,3.0,3.0,96,-99.99,,,-99.99,,2013-01-26 13:12:00,
2013-01-26 06:02:00,31.0,30.0,-100.00,SSW,196,2.0,2.0,96,-99.99,,,-99.99,,2013-01-26 14:02:00,
2013-01-26 06:11:00,31.0,30.0,-100.00,SSW,196,2.0,2.0,96,-99.99,,,-99.99,,2013-01-26 14:11:00,
2013-01-26 06:53:00,31.0,30.0,-100.00,WNW,286,2.0,3.0,96,-99.99,,,-99.99,,2013-01-26 14:53:00,
2013-01-26 07:02:00,31.0,30.0,-100.00,WNW,286,2.0,3.0,96,-99.99,,,-99.99,,2013-01-26 15:02:00,
2013-01-26 07:12:00,31.0,30.0,-100.00,WNW,286,2.0,3.0,96,-99.99,,,-99.99,,2013-01-26 15:12:00,
2013-01-26 08:02:00,31.0,30.0,-100.00,WNW,302,3.0,5.0,96,-99.99,,,-99.99,,2013-01-26 16:02:00,
2013-01-26 08:12:00,31.0,30.0,-100.00,WNW,302,3.0,5.0,96,-99.99,,,-99.99,,2013-01-26 16:12:00,
2013-01-26 09:03:00,31.0,30.0,-100.00,West,263,2.0,3.0,96,-99.99,,,-99.99,,2013-01-26 17:03:00,
2013-01-26 09:12:00,31.0,30.0,-100.00,West,263,2.0,3.0,96,-99.99,,,-99.99,,2013-01-26 17:12:00,
2013-01-26 10:02:00,32.0,30.0,-100.00,NE,50,1.0,3.0,92,-99.99,,,-99.99,,2013-01-26 18:02:00,
2013-01-26 10:12:00,32.0,30.0,-100.00,NE,50,1.0,3.0,92,-99.99,,,-99.99,,2013-01-26 18:12:00,
2013-01-26 11:03:00,33.0,30.0,-100.00,ENE,77,2.0,3.0,88,-99.99,,,-99.99,,2013-01-26 19:03:00,
2013-01-26 11:11:00,33.0,30.0,-100.00,ENE,77,2.0,3.0,88,-99.99,,,-99.99,,2013-01-26 19:11:00,
2013-01-26 12:02:00,34.0,31.0,-100.00,NE,34,3.0,6.0,88,-99.99,,,-99.99,,2013-01-26 20:02:00,
2013-01-26 12:11:00,34.0,31.0,-100.00,NE,34,3.0,6.0,88,-99.99,,,-99.99,,2013-01-26 20:11:00,
2013-01-26 13:02:00,33.0,31.0,-100.00,North,354,3.0,6.0,92,-99.99,,,-99.99,,2013-01-26 21:02:00,
2013-01-26 13:12:00,33.0,31.0,-100.00,North,354,3.0,6.0,92,-99.99,,,-99.99,,2013-01-26 21:12:00,
2013-01-26 14:01:00,34.0,31.0,-100.00,NNW,334,3.0,6.0,88,-99.99,,,-99.99,,2013-01-26 22:01:00,
2013-01-26 14:11:00,34.0,31.0,-100.00,NNW,334,3.0,6.0,88,-99.99,,,-99.99,,2013-01-26 22:11:00,
2013-01-26 15:01:00,34.0,30.0,-100.00,North,8,3.0,3.0,85,-99.99,,,-99.99,,2013-01-26 23:01:00,
2013-01-26 15:11:00,34.0,30.0,-100.00,North,8,3.0,3.0,85,-99.99,,,-99.99,,2013-01-26 23:11:00,
2013-01-26 16:02:00,35.0,30.0,-100.00,North,349,1.0,3.0,81,-99.99,,,-99.99,,2013-01-27 00:02:00,
2013-01-26 16:11:00,35.0,30.0,-100.00,North,349,1.0,3.0,81,-99.99,,,-99.99,,2013-01-27 00:11:00,
2013-01-26 17:01:00,34.0,30.0,-100.00,North,351,2.0,3.0,85,-99.99,,,-99.99,,2013-01-27 01:01:00,
2013-01-26 17:11:00,34.0,30.0,-100.00,North,351,2.0,3.0,85,-99.99,,,-99.99,,2013-01-27 01:11:00,
2013-01-26 18:01:00,34.0,31.0,-100.00,North,351,1.0,2.0,88,-99.99,,,-99.99,,2013-01-27 02:01:00,
2013-01-26 18:11:00,34.0,31.0,-100.00,North,351,1.0,2.0,88,-99.99,,,-99.99,,2013-01-27 02:11:00,
2013-01-26 19:01:00,33.0,30.0,-100.00,SSW,194,2.0,2.0,88,-99.99,,,-99.99,,2013-01-27 03:01:00,
2013-01-26 19:11:00,33.0,30.0,-100.00,SSW,194,2.0,2.0,88,-99.99,,,-99.99,,2013-01-27 03:11:00,
2013-01-26 20:01:00,33.0,31.0,-100.00,WNW,297,2.0,3.0,92,-99.99,,,-99.99,,2013-01-27 04:01:00,
2013-01-26 20:11:00,33.0,31.0,-100.00,WNW,297,2.0,3.0,92,-99.99,,,-99.99,,2013-01-27 04:11:00,
2013-01-26 21:03:00,33.0,31.0,-100.00,WSW,249,3.0,6.0,92,-99.99,,,-99.99,,2013-01-27 05:03:00,
2013-01-26 21:12:00,33.0,31.0,-100.00,WSW,249,3.0,6.0,92,-99.99,,,-99.99,,2013-01-27 05:12:00,
2013-01-26 22:01:00,33.0,31.0,-100.00,SW,216,3.0,3.0,92,-99.99,,,-99.99,,2013-01-27 06:01:00,
2013-01-26 22:11:00,33.0,31.0,-100.00,SW,216,3.0,3.0,92,-99.99,,,-99.99,,2013-01-27 06:11:00,
2013-01-26 23:01:00,32.0,30.0,-100.00,SSE,166,5.0,6.0,92,-99.99,,,-99.99,,2013-01-27 07:01:00,
2013-01-26 23:13:00,32.0,30.0,-100.00,SSE,166,5.0,6.0,92,-99.99,,,-99.99,,2013-01-27 07:13:00,